Location: Street
(51.1247°N, 2.7429°W)
Time: 04:09:26
(UTC+00:00)

Transit 2A Rocket - Pass Details

Date: 03 December 2020
Orbit: 592 x 911 km, 66.7° (Epoch: 16 January)

Event Time Altitude Azimuth Distance (km) Brightness Sun altitude
Exits shadow 04:14:07 14° 15° (NNE) 2,062 7.4 -33.7°
Drops below altitude 10° 04:15:06 10° 24° (NNE) 2,288 7.7 -33.5°
Sets 04:18:01 0° 42° (NE) 3,150 8.8 -33.1°
